timestamp,wind_dir_avg,wind_spd_avg,wind_spd_max_dir,wind_spd_gust,battery_voltage,lat,long
2021-02-26 00:04:01+00:00,242.0,12.71,248.0,15.29,12.33,47.59359,-54.27349
2021-02-26 00:14:01+00:00,241.0,12.85,242.0,15.6,12.33,47.59359,-54.27349
2021-02-26 00:24:01+00:00,232.0,12.15,234.0,16.15,12.33,47.59359,-54.27349
2021-02-26 00:34:01+00:00,234.0,11.49,237.0,13.39,12.33,47.59359,-54.27349
2021-02-26 00:44:01+00:00,238.0,13.05,236.0,15.64,12.33,47.59359,-54.27349
2021-02-26 00:54:01+00:00,238.0,10.67,241.0,13.95,12.33,47.59359,-54.27349
2021-02-26 01:04:01+00:00,229.0,10.73,229.0,12.48,12.33,47.59359,-54.27349
2021-02-26 01:14:01+00:00,230.0,12.08,235.0,15.57,12.41,47.59359,-54.27349
2021-02-26 01:24:01+00:00,231.0,12.29,229.0,14.61,12.41,47.59359,-54.27349
2021-02-26 01:34:01+00:00,230.0,12.09,231.0,14.1,12.41,47.59359,-54.27349
2021-02-26 01:44:01+00:00,232.0,10.45,223.0,12.65,12.41,47.59359,-54.27349
2021-02-26 01:54:01+00:00,231.0,10.88,241.0,13.37,12.41,47.59359,-54.27349
2021-02-26 02:04:01+00:00,236.0,9.77,233.0,11.05,12.41,47.59359,-54.27349
2021-02-26 02:14:01+00:00,241.0,10.45,247.0,13.06,12.33,47.59359,-54.27349
2021-02-26 02:24:01+00:00,244.0,10.0,243.0,11.9,12.33,47.59359,-54.27349
2021-02-26 02:34:01+00:00,257.0,10.87,260.0,12.36,12.33,47.59359,-54.27349
2021-02-26 02:44:01+00:00,255.0,11.05,254.0,13.12,12.33,47.59359,-54.27349
2021-02-26 02:54:01+00:00,256.0,12.02,254.0,13.69,12.33,47.59359,-54.27349
2021-02-26 03:04:01+00:00,256.0,10.38,255.0,11.91,12.33,47.59359,-54.27349
2021-02-26 03:14:01+00:00,260.0,9.37,263.0,10.7,12.25,47.59359,-54.27349
2021-02-26 03:24:01+00:00,262.0,9.39,262.0,11.61,12.25,47.59359,-54.27349
2021-02-26 03:34:01+00:00,270.0,9.74,272.0,11.33,12.25,47.59359,-54.27349
2021-02-26 03:44:01+00:00,281.0,9.7,287.0,11.24,12.25,47.59359,-54.27349
2021-02-26 03:54:01+00:00,295.0,12.37,293.0,14.19,12.25,47.59359,-54.27349
2021-02-26 04:04:01+00:00,299.0,11.56,302.0,13.48,12.25,47.59359,-54.27349
2021-02-26 04:14:01+00:00,299.0,13.48,287.0,18.94,12.17,47.59359,-54.27349
2021-02-26 04:24:01+00:00,301.0,8.97,304.0,10.81,12.17,47.59359,-54.27349
2021-02-26 04:34:01+00:00,307.0,9.8,306.0,11.35,12.17,47.59359,-54.27349
2021-02-26 04:44:01+00:00,303.0,10.15,294.0,12.39,12.17,47.59359,-54.27349
2021-02-26 04:54:01+00:00,301.0,12.25,294.0,15.14,12.17,47.59359,-54.27349
2021-02-26 05:04:01+00:00,298.0,10.43,300.0,12.45,12.17,47.59359,-54.27349
2021-02-26 05:14:01+00:00,303.0,9.58,309.0,12.06,12.25,47.59359,-54.27349
2021-02-26 05:24:01+00:00,304.0,8.63,310.0,9.91,12.25,47.59359,-54.27349
2021-02-26 05:34:01+00:00,298.0,10.12,294.0,12.02,12.25,47.59359,-54.27349
2021-02-26 05:44:01+00:00,298.0,9.21,298.0,12.08,12.25,47.59359,-54.27349
2021-02-26 05:54:01+00:00,301.0,10.0,307.0,12.25,12.25,47.59359,-54.27349
2021-02-26 06:04:01+00:00,296.0,10.21,295.0,11.88,12.25,47.59359,-54.27349
2021-02-26 06:14:01+00:00,302.0,8.6,304.0,10.82,12.17,47.59359,-54.27349
2021-02-26 06:24:01+00:00,295.0,10.34,289.0,11.64,12.17,47.59359,-54.27349
2021-02-26 06:34:01+00:00,313.0,9.06,286.0,12.16,12.17,47.59359,-54.27349
2021-02-26 06:44:01+00:00,306.0,10.38,307.0,12.45,12.17,47.59359,-54.27349
2021-02-26 06:54:01+00:00,308.0,9.67,305.0,11.78,12.17,47.59359,-54.27349
2021-02-26 07:04:01+00:00,300.0,8.89,301.0,10.27,12.17,47.59359,-54.27349
2021-02-26 07:14:01+00:00,298.0,7.97,302.0,10.3,12.17,47.59359,-54.27349
2021-02-26 07:24:01+00:00,294.0,8.05,287.0,9.89,12.17,47.59359,-54.27349
2021-02-26 07:34:01+00:00,279.0,7.12,278.0,8.81,12.17,47.59359,-54.27349
2021-02-26 07:44:01+00:00,274.0,6.18,277.0,7.68,12.17,47.59359,-54.27349
2021-02-26 07:54:01+00:00,281.0,5.81,283.0,8.14,12.17,47.59359,-54.27349
2021-02-26 08:04:01+00:00,297.0,9.47,288.0,11.01,12.17,47.59359,-54.27349
2021-02-26 08:14:01+00:00,304.0,7.53,292.0,10.88,12.17,47.59359,-54.27349
2021-02-26 08:24:01+00:00,298.0,8.68,299.0,10.54,12.17,47.59359,-54.27349
2021-02-26 08:34:01+00:00,297.0,6.3,286.0,9.21,12.17,47.59359,-54.27349
2021-02-26 08:44:01+00:00,297.0,6.0,283.0,9.68,12.17,47.59359,-54.27349
2021-02-26 08:54:01+00:00,295.0,9.04,300.0,10.48,12.17,47.59359,-54.27349
2021-02-26 09:04:01+00:00,304.0,8.42,305.0,10.28,12.17,47.59359,-54.27349
2021-02-26 09:14:01+00:00,299.0,8.78,299.0,10.67,12.17,47.59359,-54.27349
2021-02-26 09:24:01+00:00,301.0,8.89,302.0,10.87,12.17,47.59359,-54.27349
2021-02-26 09:34:01+00:00,296.0,8.37,297.0,10.1,12.17,47.59359,-54.27349
2021-02-26 09:44:01+00:00,297.0,7.5,293.0,9.57,12.17,47.59359,-54.27349
2021-02-26 09:54:01+00:00,303.0,9.36,306.0,11.06,12.17,47.59359,-54.27349
2021-02-26 10:04:01+00:00,295.0,9.19,288.0,11.8,12.17,47.59359,-54.27349
2021-02-26 10:14:01+00:00,298.0,8.72,295.0,10.33,12.17,47.59359,-54.27349
2021-02-26 10:24:01+00:00,299.0,9.02,305.0,10.78,12.17,47.59359,-54.27349
2021-02-26 10:34:01+00:00,300.0,9.7,305.0,12.62,12.17,47.59359,-54.27349
2021-02-26 10:44:01+00:00,307.0,9.72,311.0,11.25,12.17,47.59359,-54.27349
2021-02-26 10:54:01+00:00,301.0,8.71,304.0,10.1,12.17,47.59359,-54.27349
2021-02-26 11:04:01+00:00,303.0,9.25,302.0,11.17,12.17,47.59359,-54.27349
2021-02-26 11:14:01+00:00,299.0,8.54,303.0,10.86,12.25,47.59359,-54.27349
2021-02-26 11:24:01+00:00,286.0,7.31,279.0,8.47,12.25,47.59359,-54.27349
2021-02-26 11:34:01+00:00,281.0,7.19,279.0,9.53,12.25,47.59359,-54.27349
2021-02-26 11:44:01+00:00,268.0,7.66,266.0,8.83,12.25,47.59359,-54.27349
2021-02-26 11:54:01+00:00,277.0,8.42,273.0,10.2,12.25,47.59359,-54.27349
2021-02-26 12:04:01+00:00,290.0,8.22,293.0,9.37,12.25,47.59359,-54.27349
2021-02-26 12:14:01+00:00,282.0,8.32,288.0,10.15,14.24,47.59359,-54.27349
2021-02-26 12:24:01+00:00,291.0,8.32,285.0,12.55,14.24,47.59359,-54.27349
2021-02-26 12:34:01+00:00,284.0,7.86,281.0,9.13,14.24,47.59359,-54.27349
2021-02-26 12:44:01+00:00,284.0,8.73,280.0,10.78,14.24,47.59359,-54.27349
2021-02-26 12:54:01+00:00,284.0,9.25,282.0,11.55,14.24,47.59359,-54.27349
2021-02-26 13:04:01+00:00,286.0,9.37,292.0,11.11,14.24,47.59359,-54.27349
2021-02-26 13:14:01+00:00,284.0,8.52,287.0,11.3,13.76,47.59359,-54.27349
2021-02-26 13:24:01+00:00,275.0,10.84,274.0,12.0,13.76,47.59359,-54.27349
2021-02-26 13:34:01+00:00,279.0,10.79,283.0,12.41,13.76,47.59359,-54.27349
2021-02-26 13:44:01+00:00,275.0,12.81,274.0,14.28,13.76,47.59359,-54.27349
2021-02-26 13:54:01+00:00,280.0,10.98,278.0,12.99,13.76,47.59359,-54.27349
2021-02-26 14:04:01+00:00,287.0,12.73,294.0,14.36,13.76,47.59359,-54.27349
2021-02-26 14:14:01+00:00,274.0,11.84,271.0,13.28,13.76,47.59359,-54.27349
2021-02-26 14:24:01+00:00,278.0,13.33,273.0,14.74,13.76,47.59359,-54.27349
2021-02-26 14:34:01+00:00,276.0,11.89,272.0,13.83,13.76,47.59359,-54.27349
2021-02-26 14:44:01+00:00,270.0,12.48,270.0,14.09,13.76,47.59359,-54.27349
2021-02-26 14:54:01+00:00,281.0,10.91,281.0,13.77,13.76,47.59359,-54.27349
2021-02-26 15:04:01+00:00,289.0,10.57,281.0,13.68,13.76,47.59359,-54.27349
2021-02-26 15:14:01+00:00,278.0,11.55,282.0,13.4,13.92,47.59359,-54.27349
2021-02-26 15:24:01+00:00,295.0,9.8,298.0,11.23,13.92,47.59359,-54.27349
2021-02-26 15:34:01+00:00,281.0,13.11,288.0,14.76,13.92,47.59359,-54.27349
2021-02-26 15:44:01+00:00,286.0,10.67,282.0,14.52,13.92,47.59359,-54.27349
2021-02-26 15:54:01+00:00,296.0,11.77,294.0,13.07,13.92,47.59359,-54.27349
2021-02-26 16:04:01+00:00,267.0,12.22,265.0,13.72,13.92,47.59359,-54.27349
2021-02-26 16:14:01+00:00,272.0,10.62,276.0,12.34,13.68,47.59359,-54.27349
2021-02-26 16:24:01+00:00,270.0,12.52,272.0,15.36,13.68,47.59359,-54.27349
2021-02-26 16:34:01+00:00,275.0,11.98,281.0,14.19,13.68,47.59359,-54.27349
2021-02-26 16:44:01+00:00,280.0,11.98,279.0,15.36,13.68,47.59359,-54.27349
2021-02-26 16:54:01+00:00,272.0,11.78,278.0,13.78,13.68,47.59359,-54.27349
2021-02-26 17:04:01+00:00,278.0,12.52,281.0,15.53,13.68,47.59359,-54.27349
2021-02-26 17:14:01+00:00,277.0,12.47,280.0,17.38,14.08,47.59359,-54.27349
2021-02-26 17:24:01+00:00,287.0,12.48,285.0,15.33,14.08,47.59359,-54.27349
2021-02-26 17:34:01+00:00,282.0,13.66,282.0,15.39,14.08,47.59359,-54.27349
2021-02-26 17:44:01+00:00,272.0,15.22,269.0,16.88,14.08,47.59359,-54.27349
2021-02-26 17:54:01+00:00,275.0,13.32,285.0,15.69,14.08,47.59359,-54.27349
2021-02-26 18:04:01+00:00,287.0,13.37,290.0,15.99,14.08,47.59359,-54.27349
2021-02-26 18:14:01+00:00,279.0,13.08,281.0,15.06,14.32,47.59359,-54.27349
2021-02-26 18:24:01+00:00,280.0,12.5,285.0,14.55,14.32,47.59359,-54.27349
2021-02-26 18:34:01+00:00,303.0,10.98,296.0,15.23,14.32,47.59359,-54.27349
2021-02-26 18:44:01+00:00,272.0,11.67,266.0,13.45,14.32,47.59359,-54.27349
2021-02-26 18:54:01+00:00,300.0,12.91,299.0,16.0,14.32,47.59359,-54.27349
2021-02-26 19:04:01+00:00,278.0,11.8,284.0,14.92,14.32,47.59359,-54.27349
2021-02-26 19:14:01+00:00,276.0,12.23,275.0,14.55,13.84,47.59359,-54.27349
2021-02-26 19:24:01+00:00,292.0,13.82,294.0,15.6,13.84,47.59359,-54.27349
2021-02-26 19:34:01+00:00,292.0,13.59,289.0,15.23,13.84,47.59359,-54.27349
2021-02-26 19:44:01+00:00,287.0,10.78,289.0,15.15,13.84,47.59359,-54.27349
2021-02-26 19:54:01+00:00,307.0,9.81,291.0,12.05,13.84,47.59359,-54.27349
2021-02-26 20:04:01+00:00,295.0,13.14,298.0,16.16,13.84,47.59359,-54.27349
2021-02-26 20:14:01+00:00,284.0,13.84,284.0,15.17,13.84,47.59359,-54.27349
2021-02-26 20:24:01+00:00,283.0,12.87,292.0,15.35,13.84,47.59359,-54.27349
2021-02-26 20:34:01+00:00,289.0,10.01,289.0,14.18,13.84,47.59359,-54.27349
2021-02-26 20:44:01+00:00,305.0,11.84,301.0,16.56,13.84,47.59359,-54.27349
2021-02-26 20:54:01+00:00,305.0,7.78,292.0,9.35,13.84,47.59359,-54.27349
2021-02-26 21:04:01+00:00,302.0,10.02,295.0,14.61,13.84,47.59359,-54.27349
2021-02-26 21:14:01+00:00,303.0,9.61,300.0,11.45,13.44,47.59359,-54.27349
2021-02-26 21:24:01+00:00,298.0,8.43,299.0,9.99,13.44,47.59359,-54.27349
2021-02-26 21:34:01+00:00,292.0,8.4,287.0,10.31,13.44,47.59359,-54.27349
2021-02-26 21:44:01+00:00,290.0,8.44,287.0,9.66,13.44,47.59359,-54.27349
2021-02-26 21:54:01+00:00,295.0,7.56,296.0,8.92,13.44,47.59359,-54.27349
2021-02-26 22:04:01+00:00,297.0,6.33,298.0,7.3,13.44,47.59359,-54.27349
2021-02-26 22:14:01+00:00,293.0,7.19,299.0,8.75,12.73,47.59359,-54.27349
2021-02-26 22:24:01+00:00,296.0,5.75,302.0,7.13,12.73,47.59359,-54.27349
2021-02-26 22:34:01+00:00,298.0,6.74,300.0,7.79,12.73,47.59359,-54.27349
2021-02-26 22:44:01+00:00,290.0,7.02,298.0,8.52,12.73,47.59359,-54.27349
2021-02-26 22:54:01+00:00,306.0,6.45,314.0,9.38,12.73,47.59359,-54.27349
2021-02-26 23:04:01+00:00,306.0,6.88,307.0,8.11,12.73,47.59359,-54.27349
2021-02-26 23:14:01+00:00,301.0,7.08,311.0,8.78,12.49,47.59359,-54.27349
2021-02-26 23:24:01+00:00,307.0,7.41,314.0,8.63,12.49,47.59359,-54.27349
2021-02-26 23:34:01+00:00,308.0,8.48,302.0,10.52,12.49,47.59359,-54.27349
2021-02-26 23:44:01+00:00,308.0,7.12,296.0,9.44,12.49,47.59359,-54.27349
2021-02-26 23:54:01+00:00,305.0,8.51,306.0,10.92,12.49,47.59359,-54.27349
